Regional Weather Roundup
Issued by NWS Upton, NY

Current Version | Previous Version | Text Only | Print | Product List | Glossary On
Versions: 1 2 3 4 5 6 7 8 9 10 11 12 13 14 15 16 17 18 19 20 21 22 23 24 25 26 27 28 29 30 31 32 33 34 35 36 37 38 39 40 41 42 43 44 45 46 47 48 49 50
000 ASUS41 KOKX 091400 RWROKX REGIONAL WEATHER ROUNDUP NATIONAL WEATHER SERVICE NEW YORK NY 900 AM EST FRI DEC 09 2016 NOTE: "FAIR" INDICATES FEW OR NO CLOUDS BELOW 12,000 FEET WITH NO SIGNIFICANT WEATHER AND/OR OBSTRUCTIONS TO VISIBILITY. NYZ071-072-176-178-NJZ106-104-091500- NEW YORK CITY METRO AREA CITY SKY/WX TMP DP RH WIND PRES REMARKS Central Park N/A 36 19 51 MISG N/A Wall St Helipt SUNNY 36 21 55 W13G18 30.12R WCI 27 Bronx Bot Gard N/A 34 19 55 W17 30.09R WCI 23 LaGuardia APRT MOSUNNY 36 20 52 W16G26 30.10R WCI 26 Kennedy INTL MOSUNNY 36 19 50 W16G25 30.12R WCI 26 Breezy Point N/A 32 N/A N/A W15G26 N/A WCI 22 Newark/Liberty MOSUNNY 34 19 54 W14 30.11R WCI 25 Teterboro MOSUNNY 35 18 49 W10 30.10R WCI 27 $$ NYZ177-179-078>081-091500- LONG ISLAND NEW YORK CITY SKY/WX TMP DP RH WIND PRES REMARKS Jones Beach N/A 34 N/A N/A W17G24 N/A WCI 23 Matinecock PT NOT AVBL Farmingdale SUNNY 35 19 52 W15 30.09R WCI 25 MacArthur/ISP NOT AVBL Shirley NOT AVBL Westhampton MOSUNNY 36 18 48 NW20G30 30.06R WCI 25 Southampton N/A 37 25 60 N14 30.01R WCI 29 Bridgehampton NOT AVBL East Hampton N/A 36 20 52 NW9G23 30.03R WCI 29 Montauk N/A 36 21 54 NW15G29 30.04R WCI 27 $$ NYZ052-065-067-091500- HUDSON VALLEY CITY SKY/WX TMP DP RH WIND PRES REMARKS White Plains NOT AVBL Newburgh MOSUNNY 32 23 69 NW16 30.07R WCI 21 Montgomery MOSUNNY 33 22 63 W10 30.07R WCI 25 Poughkeepsie SUNNY 33 17 51 NW12 30.06R WCI 24 Albany MOSUNNY 29 16 58 NW14G23 30.05R WCI 18 $$ NJZ001-105-106-008-010-013-015-019>022-104-091500- NEW JERSEY CITY SKY/WX TMP DP RH WIND PRES REMARKS Newark/Liberty MOSUNNY 34 19 54 W14 30.11R WCI 25 Teterboro MOSUNNY 35 18 49 W10 30.10R WCI 27 Caldwell SUNNY 33 19 56 NW15G22 30.11R WCI 23 Somerville MOSUNNY 34 18 52 NW12G21 30.12R WCI 25 Linden N/A 33 19 56 NW12 30.13R WCI 24 Sussex MOSUNNY 34 18 52 W9 30.09R WCI 27 Andover N/A 31 20 63 MISG 30.11R Trenton SUNNY 33 17 51 W8 30.15S WCI 26 Millville SUNNY 33 19 56 NW12G21 30.22R WCI 24 Atlantic City SUNNY 32 17 54 W14 30.20R WCI 22 Wrightstown SUNNY 33 18 54 W16 30.14R WCI 22 Toms River MOSUNNY 33 18 53 W20G26 30.16R WCI 21 Belmar SUNNY 33 18 53 W16G23 30.14R WCI 23 $$ PAZ047>061-062-071-091500- EASTERN PENNSYLVANIA CITY SKY/WX TMP DP RH WIND PRES REMARKS Philadelphia SUNNY 33 17 51 W15G22 30.22R WCI 23 Allentown PTSUNNY 33 18 53 W18G24 30.16R WCI 22 Scranton CLOUDY 29 21 72 W14 30.11R WCI 18 $$ CTZ002-004>006-009-010-012-RIZ004-006-007-MAZ004-011-015-091500- SOUTHERN NEW ENGLAND IN CT CITY SKY/WX TMP DP RH WIND PRES REMARKS Bradley INTL PTSUNNY 31 18 58 NW15G21 30.02R WCI 20 Hartford SUNNY 34 17 50 NW13G18 30.03R WCI 25 Danbury SUNNY 32 17 54 NW12G22 30.05R WCI 23 Wtrbury/Oxford MOSUNNY 30 16 55 NW12G21 30.02R WCI 21 Bridgeport SUNNY 37 18 46 NW14G24 30.06R WCI 28 Meriden MOSUNNY 35 21 56 NW13G18 30.04R WCI 26 New Haven MOSUNNY 35 20 54 NW14 30.04R WCI 26 Chester N/A 32 21 64 W8G17 30.00R WCI 25 Groton NOT AVBL Wilimantic MOSUNNY 34 17 50 NW15G28 30.01R WCI 24 IN RI CITY SKY/WX TMP DP RH WIND PRES REMARKS Providence MOSUNNY 34 18 52 NW16G22 29.98R WCI 24 Block Island PTSUNNY 35 20 54 NW17G32 30.01R WCI 25 Westerly SUNNY 35 18 49 W10 30.01R WCI 27 IN MA CITY SKY/WX TMP DP RH WIND PRES REMARKS Boston MOSUNNY 34 17 50 W20G26 29.94R WCI 23 Worcester MOSUNNY 28 12 51 W15G29 29.91R WCI 16 Westfield SUNNY 31 15 52 NW23G30 30.00R WCI 18 Provincetown CLOUDY 35 22 58 W23G29 29.92R WCI 23 Nantucket MOSUNNY 37 20 50 W21G29 29.95R WCI 26 $$ ANZ330-335-338-340-345-350-353-355-091500- COASTAL MARINE OBSERVATIONS STATION/POSITION TIME SKY/WX TEMP WIND PRES VSBY WAVE AIR SEA DIR/SP/G HT/PER (UTC) (F) (DEG/KT/KT) (MB) (MI) (FT/S) NY HARB ENTRANCE 1250 35 52 280/ 25/ 31 1018.6 4/ 4 20 S FIRE ISLAND 1250 37 53 300/ 25/ 31 1017.9 7/ 6 GREAT SOUTH BAY 1330 35 41 N/A 23 SSW MONTAUK P 1250 38 54 280/ 25/ 29 1016.2 7/ 6 15 E BARNEGAT LI 1330 52 N/A 5/ 5 HUDSON CANYON 1250 40 57 1017.8 10/ 8 KINGS POINT 1324 34 46 1018.8 EXECUTION ROCKS 1345 38 260/ 12/ 19 N/A CENTRAL LI SOUND 1345 36 49 290/ 19/ 27 N/A 5/ 6 EASTERN LI SOUND NOT AVBL ROBBINS REEF 1324 33 280/ 18/ 22 1019.6 $$ >>>>>>>>>>>>>>>>>>>>>>>>>>>> KEY <<<<<<<<<<<<<<<<<<<<<<<<<<< > < > SKY/WX - Sky Condition/Present Weather < > TMP - Temperature in Fahrenheit < > DP - Dew Point in Fahrenheit < > RH - Relative Humidity in Percent < > WIND - Direction (from) and Speed in MPH < > PRES - Mean Sea Level Pressure (inches of Hg) < > WCI - Wind Chill Index < > VSB - VISIBILITY IN MILES < > HX - HEAT INDEX < > TC - TEMPERATURE IN CELSIUS < > VRB - VARIABLE WIND DIRECTION < > < >>>>>>>>>>>>>>>>>>>>>>>>>>>> KEY <<<<<<<<<<<<<<<<<<<<<<<<<<<

USA.gov is the U.S. government's official web portal to all federal, state and local government web resources and services.